map of CJU home
CJU - Airport
Location
City:  Jeju, Republic of Korea (South Korea)
Near (Alt.):Cheju
Name:Jeju International Airport
ICAO:RKPC
IATA:CJU

Details
Type:Airport (Aerodrome, Airfield)
Use:Public/Civil, International (customs port of entry)
Latitude:33°30'41"N (33.511306)
Longitude:126°29'35"E (126.493028)
Datum:WGS 1984
Elevation:118 ft (36 m)
Variation:7.29°W (WMM2015 magnetic declination)
-0.08° annual change
Runways:2
Longest:9843 × 148 ft (3000 × 45 m), paved

Time
Time Zone:UTC+9
Local Time:

Weather
METAR:RKPC 220400Z 30007KT 260V330 9999 SCT035 BKN180 09/00 Q1022 NOSIG
TAF:RKPC 212300Z 2200/2306 29010KT 9999 SCT030 TX11/2205Z TN05/2220Z TX12/2305Z

Related Locations
Nearby:
Farthest:CTQ: 12435 mi / 20012 km
Santa Vitória do Palmar [Aeropuerto Fernando Ferrari], RS, BR

Find:

   beyond  
but within

Other Information
Maps:
NOTAMs:
Links:
Sources:

  
  • flag of Republic of Korea (South Korea)
  

Sectional Chart

Flight Planning
at skyvector.com

Satellite Image

Google Maps Satellite view

 

Copyright © 2004-2019 Karl L. Swartz. All rights reserved.
The Great Circle Mapper name and logo are trademarks of the Great Circle Mapper.
All other trademarks mentioned herein belong to their respective owners.
Please see credits for attibutions and further copyright information.

  Follow gcmap on Facebook Follow gcmap on Twitter Follow gcmap on Google+ GCmap on LinkedIn

hCard Microformat

Geo Microformat